DateTimeUTC,F1_A11,F1_S11,BsB_S11,BsG_S11,BsR_S11,BbsB_S11,BbsG_S11,BbsR_S11,BaB_A11,BaG_A11,BaR_A11,Tu_S11,T_S11,Uu_S11,U_S11,P_S11,T1_A11
2021-06-11T16:00:00Z,00000200,20000000,,,,,,,0000.04,-000.33,0000.32,18.8,25.4,01.9,01.3,0664.0,31.1
2021-06-11T16:01:00Z,00000200,20000000,,,,,,,-000.10,0000.04,-000.02,18.8,25.4,02.0,01.3,0664.0,31.1
2021-06-11T16:02:00Z,00000200,20000000,,,,,,,0000.45,-000.07,0000.09,18.8,25.4,01.9,01.3,0664.0,31.1
2021-06-11T16:03:00Z,00000200,60000000,,,,,,,0000.11,0000.29,0000.01,18.8,25.5,02.0,01.3,0664.0,31.1
2021-06-11T16:04:00Z,00000200,40000000,0005.50,0003.65,0001.88,0000.42,0000.90,0000.49,0000.09,0000.53,0000.31,18.9,25.3,02.2,01.5,0664.9,31.1
2021-06-11T16:05:00Z,00000200,00000000,0006.00,0004.35,0002.21,0000.70,0000.70,0000.34,0000.39,0000.11,0000.62,19.0,25.3,02.2,01.5,0665.0,31.1
2021-06-11T16:06:00Z,00000200,00000000,0006.19,0003.57,0001.86,0001.02,0000.47,0000.18,0000.80,0000.45,0000.32,19.0,25.3,02.3,01.6,0665.0,31.1
2021-06-11T16:07:00Z,00000200,00000000,0005.85,0003.50,0001.79,0000.89,0000.44,0000.26,-000.18,0000.41,0000.34,19.0,25.3,02.5,01.7,0665.0,31.1
2021-06-11T16:08:00Z,00000200,00000000,0005.99,0003.30,0001.94,0000.64,0000.53,0000.35,0000.70,-000.13,0000.07,19.0,25.3,02.3,01.6,0665.0,31.1
2021-06-11T16:09:00Z,00000200,00000000,0006.07,0003.48,0001.77,0000.58,0000.46,0000.36,0000.02,0000.87,0000.27,19.0,25.3,02.3,01.6,0665.0,31.1
2021-06-11T16:10:00Z,00000200,00000000,0004.99,0003.43,0002.11,0000.73,0000.42,0000.50,0000.28,0000.23,0000.45,19.0,25.3,02.3,01.5,0665.0,31.1
2021-06-11T16:11:00Z,00000200,00000000,0005.49,0003.37,0001.72,0000.62,0000.35,0000.47,0000.37,0000.03,0000.48,19.0,25.3,02.3,01.6,0665.0,31.1
2021-06-11T16:12:00Z,00000200,00000000,0005.60,0003.52,0001.81,0000.54,0000.40,0000.57,0000.37,0000.42,0000.09,19.0,25.3,02.2,01.5,0665.0,31.1
2021-06-11T16:13:00Z,00000200,00000000,0004.75,0003.66,0001.62,0000.33,0000.58,0000.40,0000.31,0000.50,0000.41,19.0,25.3,02.4,01.6,0665.0,31.1
2021-06-11T16:14:00Z,00000200,00000000,0005.73,0003.19,0001.77,0000.66,0000.31,0000.55,0000.32,0000.46,0000.27,19.0,25.3,02.3,01.6,0665.0,31.1
2021-06-11T16:15:00Z,00000200,00000000,0005.05,0003.13,0001.71,0000.13,0000.44,0000.55,0000.62,0000.57,0000.66,19.0,25.3,02.4,01.6,0665.0,31.1
2021-06-11T16:16:00Z,00000200,00000000,0004.99,0003.40,0001.63,0000.55,0000.64,0000.53,-000.17,-000.06,-000.29,19.0,25.3,02.4,01.7,0665.0,31.1
2021-06-11T16:17:00Z,00000200,00000000,0004.87,0003.21,0001.55,0000.48,0000.47,0000.04,0000.57,0000.23,0000.45,19.0,25.3,02.4,01.6,0665.0,31.1
2021-06-11T16:18:00Z,00000200,00000000,0005.46,0002.81,0001.71,0000.41,0000.59,0000.26,0000.59,0000.82,0000.68,19.0,25.3,02.4,01.7,0665.0,31.1
2021-06-11T16:19:00Z,00000200,00000000,0004.81,0003.29,0001.77,0000.27,0000.56,0000.53,-000.24,-000.54,-000.03,19.0,25.3,02.4,01.6,0665.0,31.1
2021-06-11T16:20:00Z,00000200,00000000,0004.80,0003.36,0001.94,0000.83,0000.54,0000.25,0000.78,0000.64,0000.53,19.0,25.3,02.3,01.6,0665.1,31.1
2021-06-11T16:21:00Z,00000200,00000000,0005.37,0003.20,0001.83,0001.10,0000.45,0000.57,0000.08,0000.34,0000.35,19.0,25.3,02.4,01.6,0665.1,31.1
2021-06-11T16:22:00Z,00000200,00000000,0005.09,0003.34,0001.94,0000.97,0000.34,0000.62,0000.51,0000.08,-000.01,19.0,25.3,02.5,01.7,0665.1,31.1
2021-06-11T16:23:00Z,00000200,00000000,0005.32,0003.71,0001.58,0000.57,0000.46,0000.31,0000.15,0000.80,0000.43,19.0,25.3,02.4,01.7,0665.1,31.1
2021-06-11T16:24:00Z,00000200,00000000,0005.33,0003.29,0001.79,0000.30,0000.11,0000.60,0000.65,0000.21,0000.43,19.0,25.3,02.5,01.7,0665.1,31.1
2021-06-11T16:25:00Z,00000200,00000000,0004.50,0003.44,0002.00,0000.93,0000.39,0000.47,-000.04,0000.41,0000.29,19.0,25.3,02.4,01.6,0665.1,31.1
2021-06-11T16:26:00Z,00000200,00000000,0005.17,0003.15,0001.75,0000.86,0000.71,0000.30,0000.16,-000.10,0000.09,19.0,25.3,02.4,01.6,0665.1,31.1
2021-06-11T16:27:00Z,00000200,00000000,0004.48,0003.40,0001.64,0000.90,0000.30,0000.46,0000.60,0000.56,0000.43,19.0,25.3,02.3,01.6,0665.1,31.1
2021-06-11T16:28:00Z,00000200,00000000,0005.87,0003.09,0001.75,0000.67,0000.53,0000.20,0000.66,0000.44,0000.49,19.0,25.3,02.5,01.7,0665.1,31.1
2021-06-11T16:29:00Z,00000200,00000000,0005.65,0003.35,0001.75,0000.47,0000.48,0000.19,0000.40,0000.46,-000.02,19.0,25.3,02.5,01.7,0665.1,31.1
2021-06-11T16:30:00Z,00000200,00000000,0004.84,0003.35,0001.70,0000.52,0000.36,0000.36,0000.25,0000.30,0000.98,19.0,25.3,02.4,01.7,0665.1,31.1
2021-06-11T16:31:00Z,00000200,00000000,0005.03,0003.17,0001.49,0000.57,0000.70,0000.42,0000.09,-000.13,-000.03,19.0,25.3,02.3,01.6,0665.1,31.1
2021-06-11T16:32:00Z,00000200,00000000,0005.16,0002.85,0001.59,0000.64,0000.36,0000.21,-000.14,0000.06,-000.14,19.0,25.3,02.4,01.7,0665.1,31.1
2021-06-11T16:33:00Z,00000200,00000000,0004.64,0003.07,0001.76,0000.66,0000.50,0000.28,0000.72,0000.75,0000.62,19.0,25.3,02.5,01.7,0665.1,31.1
2021-06-11T16:34:00Z,00000200,00000000,0004.22,0002.91,0001.81,0000.67,0000.44,0000.24,0000.05,0000.21,0000.44,19.0,25.3,02.5,01.7,0665.1,31.1
2021-06-11T16:35:00Z,00000200,00000000,0004.22,0003.17,0001.67,0000.05,0000.33,0000.38,0000.41,0000.42,0000.52,19.0,25.3,02.5,01.7,0665.1,31.1
2021-06-11T16:36:00Z,00000200,00000000,0003.93,0002.78,0001.35,0000.77,0000.87,0000.36,0000.28,0000.40,-000.11,19.0,25.3,02.5,01.7,0665.1,31.1
2021-06-11T16:37:00Z,00000200,00000000,0004.20,0002.77,0001.63,0001.04,0000.40,0000.44,0000.18,0000.09,0000.39,19.0,25.3,02.5,01.7,0665.1,31.1
2021-06-11T16:38:00Z,00000200,00000000,0004.27,0002.99,0001.15,0000.47,0000.21,-000.13,0000.22,0000.24,-000.13,19.0,25.3,02.5,01.7,0665.1,31.1
2021-06-11T16:39:00Z,00000200,00000000,0004.12,0002.21,0000.91,0000.06,0000.62,0000.30,0000.66,0000.53,0000.46,19.0,25.2,02.4,01.6,0665.1,31.1
2021-06-11T16:40:00Z,00000200,00000000,0003.65,0003.06,0001.43,0000.49,0000.45,0000.45,0000.04,-000.06,0000.45,19.0,25.2,02.5,01.7,0665.1,31.1
2021-06-11T16:41:00Z,00000200,00000000,0004.18,0003.18,0001.42,0000.19,0000.32,0000.24,0000.28,0000.38,0000.17,19.0,25.3,02.5,01.7,0665.1,31.1
2021-06-11T16:42:00Z,00000200,00000000,0004.82,0002.82,0001.57,0000.32,0000.57,0000.37,0000.43,0000.34,0000.11,19.0,25.2,02.5,01.7,0665.1,31.1
2021-06-11T16:43:00Z,00000200,00000000,0005.02,0002.55,0001.50,0000.21,0000.34,0000.33,0000.02,-000.23,0000.15,19.0,25.2,02.5,01.7,0665.1,31.1
2021-06-11T16:44:00Z,00000200,00000000,0004.26,0002.87,0001.24,-000.23,0000.40,0000.54,0000.24,0000.68,0000.55,19.0,25.2,02.3,01.6,0665.1,31.1
2021-06-11T16:45:00Z,00000200,00000000,0004.61,0002.55,0001.58,0000.74,0000.42,0000.25,0000.31,0000.17,-000.03,19.0,25.2,02.5,01.7,0665.1,31.1
2021-06-11T16:46:00Z,00000200,00000000,0004.66,0003.06,0001.45,0000.74,0000.48,0000.25,0000.52,-000.04,0000.25,19.0,25.2,02.6,01.8,0665.1,31.1
2021-06-11T16:47:00Z,00000200,00000000,0005.31,0002.65,0001.56,0000.90,0000.32,0000.44,-000.26,0000.28,0000.19,19.0,25.3,02.5,01.7,0665.1,31.1
2021-06-11T16:48:00Z,00000200,00000000,0003.86,0002.75,0001.31,0000.76,0000.50,0000.29,0000.72,0000.73,0000.32,19.0,25.2,02.4,01.6,0665.1,31.1
2021-06-11T16:49:00Z,00000200,00000000,0004.11,0002.92,0001.14,0000.39,0000.25,0000.40,-000.04,0000.13,0000.16,19.0,25.2,02.5,01.7,0665.1,31.1
2021-06-11T16:50:00Z,00000200,00000000,0004.17,0002.51,0001.01,0000.32,0000.44,0000.20,0000.39,0000.25,0000.25,19.0,25.2,02.5,01.7,0665.1,31.1
2021-06-11T16:51:00Z,00000200,00000000,0004.28,0002.68,0001.07,0000.63,0000.27,0000.11,0000.16,0000.30,0000.41,19.0,25.2,02.4,01.7,0665.1,31.1
2021-06-11T16:52:00Z,00000200,00000000,0003.63,0002.50,0001.29,0000.41,0000.37,0000.54,0000.28,0000.25,0000.19,19.0,25.2,02.4,01.6,0665.1,31.1
2021-06-11T16:53:00Z,00000200,00000000,0004.23,0002.82,0001.01,0000.51,0000.32,0000.27,0000.64,0000.38,0000.34,19.0,25.2,02.4,01.7,0665.1,31.1
2021-06-11T16:54:00Z,00000200,00000000,0004.72,0002.94,0001.39,0000.65,0000.52,0000.10,0000.79,0000.74,0000.65,19.0,25.2,02.6,01.7,0665.1,31.1
2021-06-11T16:55:00Z,00000200,00000000,0003.02,0002.87,0001.24,0000.53,0000.43,0000.15,-000.14,-000.03,0000.15,19.0,25.2,02.7,01.8,0665.1,31.1
2021-06-11T16:56:00Z,00000200,00000000,0004.24,0002.53,0001.57,-000.01,0000.48,0000.08,0000.68,0000.64,0000.12,19.0,25.2,02.6,01.8,0665.1,31.1
2021-06-11T16:57:00Z,00000200,40000000,,,,,,,-000.06,-000.32,0000.08,19.0,25.3,02.2,01.5,0665.1,31.1
2021-06-11T16:58:00Z,00000200,60000000,,,,,,,-000.44,0000.18,0000.30,18.7,25.4,02.5,01.7,0664.1,31.1
2021-06-11T16:59:00Z,00000200,20000000,,,,,,,0000.24,-000.14,-000.22,18.7,25.5,02.6,01.7,0664.1,31.1
